SBONWEB Weather Reports


Display with metric or nautical units.
time (UTC)temp
F
wind
direction
speed
MPH
gust
MPH
rain 1hr
in
rain 24hr
in
rain mn
in
humidity
%
barometer
mb
20260502151803 71 111 2.0 8.0 0.00 0.00 0.00 39 1021.4
20260502150903 71 127 3.0 4.0 0.00 0.00 0.00 39 1021.4
20260502123603 68 112 4.0 10.0 0.00 0.00 0.00 44 1023.6
20260502122703 68 134 3.0 8.0 0.00 0.00 0.00 44 1023.7
20260502121803 68 88 2.0 5.0 0.00 0.00 0.00 43 1023.8
20260502121116 68 121 4.0 9.0 0.00 0.00 0.00 42 1023.9
20260502115403 68 139 4.0 9.0 0.00 0.00 0.00 43 1024.1
20260502114504 67 109 5.0 9.0 0.00 0.00 0.00 45 1024.2
20260502113603 67 122 4.0 8.0 0.00 0.00 0.00 44 1024.4
20260502112703 68 141 3.0 11.0 0.00 0.00 0.00 45 1024.5
20260502111803 67 185 3.0 7.0 0.00 0.00 0.00 44 1024.7
20260502110903 67 173 4.0 10.0 0.00 0.00 0.00 45 1024.8
20260502110003 66 126 4.0 11.0 0.00 0.00 0.00 49 1024.9
20260502105404 66 163 4.0 11.0 0.00 0.00 0.00 46 1025.0
20260502104503 66 140 3.0 9.0 0.00 0.00 0.00 47 1025.1
20260502103818 66 153 3.0 7.0 0.00 0.00 0.00 46 1025.2
20260502102703 66 122 3.0 7.0 0.00 0.00 0.00 45 1025.3
20260502101803 65 155 4.0 12.0 0.00 0.00 0.00 48 1025.5
20260502100903 66 149 3.0 13.0 0.00 0.00 0.00 43 1025.8
20260502090903 63 154 3.0 6.0 0.00 0.00 0.00 50 1026.5
20260502070903 60 291 1.0 3.0 0.00 0.00 0.00 59 1026.7
20260502070003 60 28 2.0 3.0 0.00 0.00 0.00 60 1026.8
20260502065404 59 49 2.0 3.0 0.00 0.00 0.00 59 1026.9
20260502064503 59 22 2.0 3.0 0.00 0.00 0.00 60 1026.8
20260502063603 59 24 2.0 4.0 0.00 0.00 0.00 62 1026.9
20260502062703 58 39 3.0 5.0 0.00 0.00 0.00 63 1026.8
20260502061803 57 30 3.0 8.0 0.00 0.00 0.00 65 1026.8
20260502060903 57 20 3.0 5.0 0.00 0.00 0.00 66 1026.7
20260502060003 56 19 4.0 8.0 0.00 0.00 0.00 67 1026.8
20260502055404 55 15 4.0 8.0 0.00 0.00 0.00 68 1026.8
20260502054503 55 16 4.0 7.0 0.00 0.00 0.00 69 1026.9
20260502053603 54 18 4.0 7.0 0.00 0.00 0.00 70 1026.8
20260502052919 54 14 4.0 7.0 0.00 0.00 0.00 71 1026.9
20260502051803 53 10 4.0 7.0 0.00 0.00 0.00 72 1026.7
20260502050903 52 12 4.0 7.0 0.00 0.00 0.00 73 1026.7
20260502050003 52 4 3.0 5.0 0.00 0.00 0.00 74 1026.6
20260502045403 51 7 3.0 5.0 0.00 0.00 0.00 75 1026.8
20260502044718 51 9 3.0 5.0 0.00 0.00 0.00 76 1026.7
20260502043603 50 348 2.0 5.0 0.00 0.00 0.00 77 1026.7
20260502042703 49 355 2.0 5.0 0.00 0.00 0.00 78 1026.7
20260502041803 49 352 1.0 4.0 0.00 0.00 0.00 78 1026.6
20260502040904 49 7 1.0 3.0 0.00 0.00 0.00 78 1026.6
20260502040003 49 10 1.0 2.0 0.00 0.00 0.00 78 1026.6
20260502035403 49 12 1.0 2.0 0.00 0.00 0.00 77 1026.6
20260502034503 49 13 1.0 3.0 0.00 0.00 0.00 77 1026.5
20260502033603 50 11 1.0 2.0 0.00 0.00 0.00 76 1026.4
20260502032704 50 12 1.0 3.0 0.00 0.00 0.00 75 1026.3
20260502032018 50 9 2.0 3.0 0.00 0.00 0.00 74 1026.4
20260502030903 50 6 2.0 4.0 0.00 0.00 0.00 74 1026.4
20260502030216 50 3 2.0 4.0 0.00 0.00 0.00 73 1026.3
20260502025403 50 1 2.0 4.0 0.00 0.00 0.00 73 1026.4
20260502024503 50 339 2.0 4.0 0.00 0.00 0.00 72 1026.3
20260502023817 50 330 1.0 4.0 0.00 0.00 0.00 73 1026.3
20260502022703 50 7 1.0 3.0 0.00 0.00 0.00 72 1026.4
20260502021803 50 357 2.0 3.0 0.00 0.00 0.00 72 1026.3
20260502020903 50 10 2.0 4.0 0.00 0.00 0.00 72 1026.3
20260502020003 50 354 1.0 3.0 0.00 0.00 0.00 72 1026.2
20260502015403 50 9 1.0 3.0 0.00 0.00 0.00 72 1026.2
20260502014503 50 1 2.0 3.0 0.00 0.00 0.00 72 1026.2
20260502013818 50 348 1.0 3.0 0.00 0.00 0.00 72 1026.1
20260502012917 50 262 1.0 3.0 0.00 0.00 0.00 71 1026.2
20260502011803 50 339 1.0 2.0 0.00 0.00 0.00 71 1026.1
20260502010904 50 307 1.0 3.0 0.00 0.00 0.00 71 1026.1
20260502010217 50 11 1.0 3.0 0.00 0.00 0.00 71 1026.1
20260502005403 50 5 1.0 2.0 0.00 0.00 0.00 72 1026.2
20260502004503 50 353 0.0 3.0 0.00 0.00 0.00 72 1026.2
20260502003603 49 241 0.0 1.0 0.00 0.00 0.00 73 1026.2
20260502002703 49 241 0.0 2.0 0.00 0.00 0.00 72 1026.2
20260502001804 50 0 0.0 0.0 0.00 0.00 0.00 72 1026.3
20260502000903 50 249 0.0 1.0 0.00 0.00 0.00 72 1026.4
20260502000003 50 249 1.0 2.0 0.00 0.00 0.00 71 1026.4
20260501235403 50 249 1.0 2.0 0.00 0.00 0.00 71 1026.4
20260501234503 50 249 1.0 2.0 0.00 0.00 0.00 71 1026.4
20260501233603 50 242 1.0 2.0 0.00 0.00 0.00 72 1026.4
20260501232704 49 213 1.0 2.0 0.00 0.00 0.00 72 1026.5
20260501232018 49 200 0.0 2.0 0.00 0.00 0.00 73 1026.5
20260501230903 49 200 1.0 2.0 0.00 0.00 0.00 73 1026.4
20260501230003 50 200 0.0 2.0 0.00 0.00 0.00 73 1026.4
20260501225404 50 0 0.0 0.0 0.00 0.00 0.00 72 1026.4
20260501224504 50 0 0.0 0.0 0.00 0.00 0.00 72 1026.4
20260501223603 50 0 0.0 0.0 0.00 0.00 0.00 71 1026.4
20260501222703 50 0 0.0 0.0 0.00 0.00 0.00 70 1026.4
20260501222018 50 0 0.0 0.0 0.00 0.00 0.00 70 1026.3
20260501220903 51 0 0.0 0.0 0.00 0.00 0.00 70 1026.2
20260501220003 51 0 0.0 0.0 0.00 0.00 0.00 70 1026.2
20260501215403 51 199 1.0 1.0 0.00 0.00 0.00 70 1026.2
20260501214504 51 199 1.0 2.0 0.00 0.00 0.00 69 1026.3
20260501213603 51 199 1.0 2.0 0.00 0.00 0.00 69 1026.2
20260501212918 51 199 1.0 2.0 0.00 0.00 0.00 70 1026.2
20260501211803 52 199 1.0 2.0 0.00 0.00 0.00 69 1026.3
20260501211116 52 199 1.0 2.0 0.00 0.00 0.00 68 1026.2
20260501210003 52 189 0.0 2.0 0.00 0.00 0.00 68 1026.2
20260501205403 52 0 0.0 0.0 0.00 0.00 0.00 68 1026.2
20260501204504 52 0 0.0 0.0 0.00 0.00 0.00 67 1026.2
20260501203603 52 0 0.0 0.0 0.00 0.00 0.00 67 1026.2
20260501202703 53 0 0.0 0.0 0.00 0.00 0.00 68 1026.1
20260501201803 53 0 0.0 0.0 0.00 0.00 0.00 66 1026.1
20260501200904 54 0 0.0 0.0 0.00 0.00 0.00 66 1026.0
20260501200003 54 0 0.0 0.0 0.00 0.00 0.00 65 1026.0
20260501195403 54 0 0.0 0.0 0.00 0.00 0.00 65 1025.8
20260501194504 54 0 0.0 0.0 0.00 0.00 0.00 64 1025.9
20260501193818 55 0 0.0 0.0 0.00 0.00 0.00 64 1025.7
20260501192704 55 0 0.0 0.0 0.00 0.00 0.00 64 1025.7
20260501191803 56 174 0.0 1.0 0.00 0.00 0.00 63 1025.5
20260501190903 56 174 0.0 1.0 0.00 0.00 0.00 61 1025.4
20260501190003 57 172 1.0 1.0 0.00 0.00 0.00 61 1025.4
20260501185403 57 168 1.0 3.0 0.00 0.00 0.00 59 1025.3
20260501184503 58 161 1.0 2.0 0.00 0.00 0.00 57 1025.2
20260501183603 59 161 0.0 1.0 0.00 0.00 0.00 57 1025.1
20260501182703 60 157 0.0 1.0 0.00 0.00 0.00 54 1025.0
20260501181803 62 153 0.0 1.0 0.00 0.00 0.00 51 1024.9
20260501180903 64 151 0.0 2.0 0.00 0.00 0.00 50 1024.8
20260501180003 65 145 1.0 2.0 0.00 0.00 0.00 46 1024.8
20260501175616 65 142 1.0 2.0 0.00 0.00 0.00 45 1024.8
20260501174718 65 139 1.0 3.0 0.00 0.00 0.00 44 1024.6
20260501173603 65 131 2.0 5.0 0.00 0.00 0.00 44 1024.7
20260501172703 65 144 2.0 4.0 0.00 0.00 0.00 42 1024.6
20260501171803 65 143 2.0 5.0 0.00 0.00 0.00 41 1024.6
20260501170903 65 133 3.0 5.0 0.00 0.00 0.00 42 1024.7
20260501170003 66 148 2.0 7.0 0.00 0.00 0.00 41 1024.7
20260501165403 66 143 2.0 6.0 0.00 0.00 0.00 41 1024.7
20260501164503 66 132 3.0 5.0 0.00 0.00 0.00 40 1024.8
20260501163603 66 135 3.0 6.0 0.00 0.00 0.00 40 1024.7
20260501162918 66 123 3.0 8.0 0.00 0.00 0.00 41 1024.7
20260501162017 66 127 2.0 6.0 0.00 0.00 0.00 41 1025.0
20260501160903 66 142 2.0 5.0 0.00 0.00 0.00 42 1025.0
20260501160003 66 126 3.0 7.0 0.00 0.00 0.00 41 1025.1
20260501155403 66 121 3.0 10.0 0.00 0.00 0.00 41 1025.2
20260501154503 66 105 4.0 10.0 0.00 0.00 0.00 42 1025.2
20260501153604 66 127 4.0 8.0 0.00 0.00 0.00 40 1025.4
20260501152703 66 138 2.0 7.0 0.00 0.00 0.00 40 1025.4